This demonstration page uses our WeatherBlox Daily Observations layout. Learn more.

Left ArrowRight Arrow

38.88101, -77.10428

Hourly Observations for March 6, 2019

Temp ( °F °C ) Dew Point ( °F °C ) Humidity (%) Winds ( mph kmh ) Pressure ( in mb ) Visibility ( mi km ) Precip ( " mm )
12:52 am 00:52 Mostly Clear 27 -2.8 6 -14.4 41 41 NW 12 19 30.14 1021 10 16.0934 0 0
1:52 am 01:52 Mostly Cloudy 27 -2.8 6 -14.4 41 41 NW 18 30 30.15 1021 10 16.0934 0 0
2:52 am 02:52 Mostly Cloudy 26 -3.3 8 -13.3 46 46 NNW 24 39 30.16 1021 10 16.0934 0 0
3:52 am 03:52 Partly Cloudy 25 -3.9 4 -15.6 40 40 NW 10 17 30.19 1022 10 16.0934 0 0
4:52 am 04:52 Partly Cloudy 23 -5 6 -14.4 48 48 NNW 14 22 30.22 1023 10 16.0934 0 0
5:52 am 05:52 Mostly Clear 23 -5 2 -16.7 40 40 NW 14 22 30.24 1024 10 16.0934 0 0
6:52 am 06:52 Mostly Sunny 22 -5.6 2 -16.7 42 42 WNW 12 19 30.26 1025 10 16.0934 0 0
7:52 am 07:52 Mostly Sunny 23 -5 1 -17.2 38 38 NNW 14 22 30.28 1026 10 16.0934 0 0
8:52 am 08:52 Mostly Sunny 25 -3.9 2 -16.7 37 37 W 17 28 30.3 1026 10 16.0934 0 0
9:52 am 09:52 Partly Cloudy 26 -3.3 2 -16.7 35 35 WNW 15 24 30.3 1026 10 16.0934 0 0
10:52 am 10:52 Mostly Cloudy 29 -1.7 4 -15.6 34 34 NW 15 24 30.3 1026 10 16.0934 0 0
11:52 am 11:52 Mostly Cloudy 30 -1.1 5 -15 34 34 WNW 16 26 30.3 1026 10 16.0934 0 0
12:52 pm 12:52 Mostly Cloudy 30 -1.1 3 -16.1 31 31 WNW 13 20 30.28 1025 10 16.0934 0 0
1:52 pm 13:52 Mostly Sunny 32 0 3 -16.1 29 29 WNW 18 30 30.25 1024 10 16.0934 0 0
2:52 pm 14:52 Partly Cloudy 33 0.6 2 -16.7 26 26 WNW 22 35 30.24 1024 10 16.0934 0 0
3:52 pm 15:52 Partly Cloudy 33 0.6 2 -16.7 26 26 WNW 17 28 30.24 1024 10 16.0934 0 0
4:52 pm 16:52 Mostly Sunny 32 0 3 -16.1 29 29 WNW 12 19 30.26 1025 10 16.0934 0 0
5:52 pm 17:52 Mostly Sunny 31 -0.6 3 -16.1 30 30 WNW 13 20 30.27 1025 10 16.0934 0 0
6:52 pm 18:52 Mostly Clear 30 -1.1 3 -16.1 31 31 WNW 10 17 30.28 1025 10 16.0934 0 0
7:52 pm 19:52 Clear 29 -1.7 3 -16.1 33 33 NW 13 20 30.29 1026 10 16.0934 0 0
8:52 pm 20:52 Clear 28 -2.2 4 -15.6 35 35 NW 10 17 30.32 1027 10 16.0934 0 0
9:52 pm 21:52 Clear 28 -2.2 5 -15 37 37 NNW 15 24 30.34 1027 10 16.0934 0 0
10:52 pm 22:52 Mostly Clear 27 -2.8 5 -15 39 39 NNW 13 20 30.35 1028 10 16.0934 0 0
11:52 pm 23:52 Mostly Cloudy 27 -2.8 6 -14.4 41 41 NNW 8 13 30.34 1027 10 16.0934 0 0

Powered by AerisWeather